Ephrata, WA
on Saturday, December 1, 2012

Saturday
Previous Day Next Day
Daily Summary
 ActualAverageRecord
Temperature
Mean Temperature °F 31°F  
Max Temperature 53°F 37°F 63°F (1972)
Min Temperature 38°F 24°F 1°F (1985)
Degree Days
Heating Degree Days 19 34  
Month to date heating degree days 19 34  
Since 1 July heating degree days 1279 1453  
Cooling Degree Days 0 0  
Month to date cooling degree days 0 0  
Year to date cooling degree days 837 772  
Moisture
Dew Point 36°F   
Average Humidity 74    
Maximum Humidity 100    
Minimum Humidity 48    
Precipitation
Precipitation 0.04 in 0.04 in 0.45 in (1979)
Month to date precipitation 0.04 0.04  
Year to date precipitation 6.99 6.65  
Wind
Wind Speed 8 mph   
Max Wind Speed 23 mph   
Max Gust Speed 28 mph   
Visibility 10 miles   
Events Rain   

Key: T is trace of precipitation, MM is missing value
Source: NWS Daily Summary
Time(PST)TemperatureDew PointHumidity Pressure Visibility Wind DirectionWind SpeedGust SpeedPrecipitationEvents Conditions
12:53 AM 39.0°F 37.9°F 96% 29.52 in 6.0 miles North 5.8 mph - N/A   Mostly Cloudy
1:53 AM 39.9°F 37.9°F 93% 29.52 in 9.0 miles North 4.6 mph - N/A   Mostly Cloudy
2:53 AM 37.9°F 37.0°F 97% 29.52 in 9.0 miles Calm Calm - N/A   Scattered Clouds
3:53 AM 41.0°F 37.9°F 89% 29.50 in 10.0 miles Calm Calm - N/A   Mostly Cloudy
4:53 AM 41.0°F 37.9°F 89% 29.49 in 10.0 miles South 8.1 mph - N/A   Mostly Cloudy
5:53 AM 42.1°F 37.9°F 85% 29.52 in 10.0 miles SW 10.4 mph - N/A   Clear
7:53 AM 45.0°F 36.0°F 71% 29.58 in 10.0 miles WSW 15.0 mph - N/A   Clear
8:53 AM 45.0°F 37.0°F 74% 29.62 in 10.0 miles SW 11.5 mph - N/A   Clear
9:53 AM 48.9°F 37.9°F 66% 29.65 in 10.0 miles SW 11.5 mph - N/A   Clear
10:53 AM 50.0°F 37.0°F 61% 29.67 in 10.0 miles SSW 18.4 mph - N/A   Clear
11:53 AM 52.0°F 33.1°F 49% 29.66 in 10.0 miles SW 20.7 mph - N/A   Clear
12:53 PM 52.0°F 34.0°F 50% 29.66 in 10.0 miles SSW 20.7 mph - N/A   Clear
1:53 PM 52.0°F 32.0°F 47% 29.65 in 10.0 miles South 16.1 mph - N/A   Clear
2:53 PM 46.9°F 35.1°F 63% 29.65 in 10.0 miles South 10.4 mph - N/A   Clear
3:53 PM 44.1°F 34.0°F 68% 29.66 in 10.0 miles South 9.2 mph - N/A   Clear
4:53 PM 42.1°F 33.1°F 70% 29.66 in 10.0 miles South 4.6 mph - N/A   Clear
5:53 PM 41.0°F 34.0°F 76% 29.64 in 10.0 miles Calm Calm - N/A   Clear
6:53 PM 43.0°F 34.0°F 71% 29.62 in 10.0 miles Calm Calm - N/A   Clear
7:53 PM 44.1°F 35.1°F 71% 29.60 in 10.0 miles SE 4.6 mph - N/A   Overcast
8:53 PM 41.0°F 36.0°F 82% 29.56 in 10.0 miles NNE 4.6 mph - 0.00 in   Overcast
9:53 PM 39.9°F 37.0°F 89% 29.55 in 10.0 miles North 4.6 mph - 0.00 in Rain Light Rain
10:53 PM 41.0°F 37.9°F 89% 29.52 in 10.0 miles North 5.8 mph - 0.03 in Rain Light Rain
11:53 PM 41.0°F 39.0°F 93% 29.46 in 10.0 miles NNE 4.6 mph - 0.01 in Rain Light Rain
Moon Phase
Dec. 01 Dec. 06 Dec. 13 Dec. 20 Dec. 28
Sunrise:07:24 AM (PST) Moon Rise:07:08 PM (PST)12/1
Sunset:04:09 PM (PST) Moon Set:09:38 AM (PST)12/1

Copyright © 2014 The Weather Underground, Inc.